Regional Weather Roundup
Issued by NWS

Home | Current Version | Previous Version | Text Only | Print | Product List | Glossary Off
Versions: 1 2 3 4 5 6 7 8 9 10 11 12 13 14 15 16 17 18 19 20 21 22 23 24 25 26 27 28 29 30 31 32 33 34 35 36 37 38 39 40 41 42 43 44 45 46 47 48 49 50

464
ASUS43 KLMK 190202
RWRKY
KENTUCKY REGIONAL WEATHER ROUNDUP
NATIONAL WEATHER SERVICE LOUISVILLE KY
1000 PM EDT WED APR 18 2018

NOTE "FAIR" INDICATES FEW OR NO CLOUDS BELOW 12,000 FEET
WITH NO SIGNIFICANT WEATHER AND/OR OBSTRUCTIONS TO VISIBILITY.

KYZ001>023-026-027-061>063-070>075-190300-
WESTERN AND SOUTH CENTRAL KENTUCKY

CITY           SKY/WX    TMP DP  RH WIND       PRES   REMARKS
PADUCAH        FAIR      58  38  47 NW20G30   29.93R
HENDERSON      FAIR      52  38  58 NW18G31   29.93R
OWENSBORO      MOCLDY    55  40  56 NW21G35   29.91R
HOPKINSVILLE   MOCLDY    68  37  31 W16       29.84R
BOWLING GREEN  FAIR      71  40  32 NW9G18    29.80R
GLASGOW        NOT AVBL
$$

KYZ024-025-028>034-038-045-046-053-190300-
NORTH CENTRAL KENTUCKY

CITY           SKY/WX    TMP DP  RH WIND       PRES   REMARKS
LOUISVILLE/SDF FAIR      57  43  59 NW20G32   29.82R
LOUISVILLE/LOU FAIR      58  43  57 NW16G31   29.81R
FORT KNOX      FAIR      56  43  62 NW17      29.83R
$$

KYZ035>037-039>044-047>052-055>060-089>105-190300-
NORTHEAST KENTUCKY

CITY           SKY/WX    TMP DP  RH WIND       PRES   REMARKS
LEXINGTON      LGT RAIN  59  55  87 SW10      29.76R
COVINGTON      CLOUDY    55  43  63 NW26G36   29.76R
FRANKFORT      CLOUDY    61  52  72 NW15G23   29.75R
$$

KYZ054-064>069-076>088-106>120-190300-
SOUTHEAST KENTUCKY

CITY           SKY/WX    TMP DP  RH WIND       PRES   REMARKS
JACKSON        FAIR      67  52  58 VRB7G22   29.73F
LONDON         FAIR      67  53  61 SW10G22   29.79S
SOMERSET       NOT AVBL
MIDDLESBORO    FAIR      68  54  59 W10G18    29.83R
MONTICELLO     MOCLDY    65  55  70 SW20G26   29.82R
$$





USA.gov is the U.S. government's official web portal to all federal, state and local government web resources and services.